TimeCDT,TemperatureF,Dew PointF,Humidity,Sea Level PressureIn,VisibilityMPH,Wind Direction,Wind SpeedMPH,Gust SpeedMPH,PrecipitationIn,Events,Conditions,WindDirDegrees,DateUTC
12:54 AM,48.9,48.0,97,29.74,0.5,South,6.9,-,N/A,Fog,Fog,170,2013-10-31 05:54:00
1:54 AM,48.9,48.0,97,29.70,0.2,South,3.5,-,N/A,Fog,Fog,190,2013-10-31 06:54:00
2:17 AM,48.2,48.2,100,29.66,0.5,SSE,5.8,-,N/A,Fog,Fog,150,2013-10-31 07:17:00
2:39 AM,48.2,48.2,100,29.66,1.5,South,4.6,-,N/A,,Overcast,170,2013-10-31 07:39:00
2:47 AM,48.2,48.2,100,29.65,2.0,South,5.8,-,N/A,,Overcast,180,2013-10-31 07:47:00
2:54 AM,48.9,48.0,97,29.67,2.0,South,3.5,-,N/A,,Overcast,170,2013-10-31 07:54:00
3:54 AM,48.9,48.0,97,29.62,2.0,East,3.5,-,N/A,,Overcast,100,2013-10-31 08:54:00
4:04 AM,48.2,48.2,100,29.58,1.5,ENE,3.5,-,N/A,,Overcast,70,2013-10-31 09:04:00
4:24 AM,48.2,48.2,100,29.59,0.5,Calm,Calm,-,N/A,Fog,Fog,0,2013-10-31 09:24:00
4:38 AM,48.2,48.2,100,29.59,0.2,SE,4.6,-,N/A,Fog,Fog,140,2013-10-31 09:38:00
4:54 AM,48.9,48.0,97,29.61,0.2,Calm,Calm,-,N/A,Fog,Fog,0,2013-10-31 09:54:00
5:45 AM,48.2,48.2,100,29.58,0.2,Calm,Calm,-,N/A,Fog,Fog,0,2013-10-31 10:45:00
5:54 AM,48.0,46.9,96,29.60,0.2,Calm,Calm,-,N/A,Fog,Fog,0,2013-10-31 10:54:00
6:54 AM,48.0,48.0,100,29.57,0.2,Calm,Calm,-,N/A,Fog,Fog,0,2013-10-31 11:54:00
7:54 AM,48.0,46.9,96,29.56,0.2,Calm,Calm,-,0.03,Fog-Rain,Rain,0,2013-10-31 12:54:00
8:00 AM,48.2,46.4,93,29.53,0.5,Calm,Calm,-,0.00,Fog-Rain,Light Rain,0,2013-10-31 13:00:00
8:14 AM,48.2,46.4,93,29.52,0.8,Calm,Calm,-,0.00,Rain,Light Rain,0,2013-10-31 13:14:00
8:20 AM,48.2,46.4,93,29.51,2.0,ENE,3.5,-,0.00,Rain,Light Rain,60,2013-10-31 13:20:00
8:49 AM,48.2,48.2,100,29.51,3.0,Calm,Calm,-,0.00,Rain,Light Rain,0,2013-10-31 13:49:00
8:54 AM,48.9,48.0,97,29.53,3.0,Calm,Calm,-,0.00,Rain,Light Rain,0,2013-10-31 13:54:00
9:03 AM,48.2,48.2,100,29.51,2.5,Calm,Calm,-,0.00,Rain,Light Rain,0,2013-10-31 14:03:00
9:54 AM,50.0,48.9,96,29.49,2.5,Calm,Calm,-,0.00,Rain,Light Rain,0,2013-10-31 14:54:00
10:02 AM,50.0,48.2,94,29.46,3.0,Calm,Calm,-,0.00,,Overcast,0,2013-10-31 15:02:00
10:06 AM,50.0,48.2,94,29.46,1.8,Calm,Calm,-,0.00,,Overcast,0,2013-10-31 15:06:00
10:37 AM,48.2,48.2,100,29.46,0.5,Calm,Calm,-,0.00,Fog,Fog,0,2013-10-31 15:37:00
10:54 AM,50.0,48.9,96,29.47,0.8,Calm,Calm,-,0.00,,Overcast,0,2013-10-31 15:54:00
11:41 AM,51.8,48.2,88,29.42,1.0,Calm,Calm,-,0.00,Rain,Light Rain,0,2013-10-31 16:41:00
11:54 AM,51.1,50.0,96,29.43,0.8,Calm,Calm,-,0.00,,Overcast,0,2013-10-31 16:54:00
12:54 PM,51.1,50.0,96,29.38,1.2,NNW,3.5,-,0.00,,Overcast,340,2013-10-31 17:54:00
1:43 PM,51.8,50.0,94,29.33,0.8,Calm,Calm,-,N/A,,Overcast,0,2013-10-31 18:43:00
1:54 PM,52.0,51.1,97,29.34,0.8,Calm,Calm,-,N/A,,Overcast,0,2013-10-31 18:54:00
2:50 PM,51.8,51.8,100,29.29,1.5,Calm,Calm,-,N/A,,Overcast,0,2013-10-31 19:50:00
2:54 PM,52.0,51.1,97,29.30,2.0,ESE,3.5,-,N/A,,Overcast,110,2013-10-31 19:54:00
3:12 PM,51.8,51.8,100,29.28,1.5,Calm,Calm,-,N/A,,Overcast,0,2013-10-31 20:12:00
3:37 PM,51.8,51.8,100,29.26,0.8,Calm,Calm,-,N/A,,Overcast,0,2013-10-31 20:37:00
3:54 PM,52.0,51.1,97,29.28,0.5,Calm,Calm,-,N/A,Fog,Fog,0,2013-10-31 20:54:00
4:11 PM,51.8,51.8,100,29.25,0.2,Calm,Calm,-,N/A,Fog,Fog,0,2013-10-31 21:11:00
4:40 PM,51.8,51.8,100,29.24,0.8,NE,3.5,-,N/A,,Overcast,50,2013-10-31 21:40:00
4:54 PM,52.0,51.1,97,29.26,0.2,NNW,3.5,-,0.00,Fog-Rain,Light Rain,340,2013-10-31 21:54:00
5:30 PM,51.8,51.8,100,29.23,0.8,Calm,Calm,-,0.00,Rain,Light Rain,0,2013-10-31 22:30:00
5:32 PM,51.8,51.8,100,29.23,1.0,Calm,Calm,-,0.00,Rain,Light Rain,0,2013-10-31 22:32:00
5:54 PM,51.1,51.1,100,29.25,1.8,Calm,Calm,-,0.00,Rain,Light Rain,0,2013-10-31 22:54:00
6:21 PM,51.8,51.8,100,29.23,1.8,WNW,3.5,-,0.09,Rain,Rain,290,2013-10-31 23:21:00
6:25 PM,51.8,51.8,100,29.22,2.0,Calm,Calm,-,0.09,Rain,Light Rain,0,2013-10-31 23:25:00
6:29 PM,51.8,51.8,100,29.21,3.0,Calm,Calm,-,0.09,Rain,Light Rain,0,2013-10-31 23:29:00
6:34 PM,51.8,50.0,94,29.21,2.0,Calm,Calm,-,0.09,Rain,Light Rain,0,2013-10-31 23:34:00
6:45 PM,51.8,50.0,94,29.21,2.5,Calm,Calm,-,0.09,Rain,Light Rain,0,2013-10-31 23:45:00
6:48 PM,51.8,50.0,94,29.21,1.8,Calm,Calm,-,0.09,Rain,Light Rain,0,2013-10-31 23:48:00
6:54 PM,51.1,50.0,96,29.22,2.0,Calm,Calm,-,0.09,Rain,Light Rain,0,2013-10-31 23:54:00
6:59 PM,51.8,50.0,94,29.21,5.0,Calm,Calm,-,0.00,Rain,Light Rain,0,2013-10-31 23:59:00
7:19 PM,51.8,50.0,94,29.20,5.0,NW,5.8,-,0.00,Rain,Light Rain,310,2013-11-01 00:19:00
7:47 PM,51.8,50.0,94,29.19,6.0,NW,4.6,-,0.04,Rain,Light Rain,320,2013-11-01 00:47:00
7:54 PM,51.1,50.0,96,29.21,6.0,NNW,4.6,-,0.04,Rain,Light Rain,330,2013-11-01 00:54:00
8:32 PM,51.8,48.2,88,29.18,5.0,WNW,6.9,-,0.00,Rain,Light Rain,290,2013-11-01 01:32:00
8:40 PM,51.8,50.0,94,29.17,7.0,WNW,8.1,-,0.00,Rain,Light Rain,300,2013-11-01 01:40:00
8:54 PM,51.1,50.0,96,29.18,7.0,WNW,3.5,-,0.00,Rain,Light Rain,300,2013-11-01 01:54:00
9:24 PM,51.8,50.0,94,29.17,5.0,NW,6.9,-,0.01,Rain,Light Rain,310,2013-11-01 02:24:00
9:54 PM,50.0,48.0,93,29.17,4.0,North,12.7,-,0.04,Rain,Rain,360,2013-11-01 02:54:00
10:07 PM,50.0,46.4,87,29.14,5.0,North,12.7,-,0.02,Rain,Light Rain,10,2013-11-01 03:07:00
10:15 PM,48.2,46.4,93,29.14,6.0,North,10.4,-,0.02,Rain,Light Rain,360,2013-11-01 03:15:00
10:30 PM,48.2,46.4,93,29.14,8.0,NNW,8.1,-,0.03,Rain,Light Rain,340,2013-11-01 03:30:00
10:54 PM,48.9,46.0,90,29.15,6.0,NNW,9.2,-,0.05,Rain,Light Rain,330,2013-11-01 03:54:00
11:02 PM,48.2,46.4,93,29.14,5.0,NW,8.1,-,0.00,Rain,Light Rain,320,2013-11-01 04:02:00
11:40 PM,48.2,46.4,93,29.14,6.0,NNW,10.4,-,0.02,Rain,Light Rain,330,2013-11-01 04:40:00
11:54 PM,48.0,45.0,89,29.15,6.0,NW,10.4,-,0.03,Rain,Light Rain,320,2013-11-01 04:54:00